Time,TemperatureF,DewpointF,PressureIn,WindDirection,WindDirectionDegrees,WindSpeedMPH,WindSpeedGustMPH,Humidity,HourlyPrecipIn,Conditions,Clouds,dailyrainin,SolarRadiationWatts/m^2,SoftwareType,DateUTC
2013-08-26 00:00:00,74.9,62.3,30.13,SSE,157,1.0,6.0,65,0.00,,CLR,0.00,0.00,VWS V14.01,2013-08-26 05:00:00,
2013-08-26 00:05:00,74.9,62.3,30.14,SSE,157,0.0,0.0,65,0.00,,CLR,0.00,0.00,VWS V14.01,2013-08-26 05:05:00,
2013-08-26 00:11:00,74.7,62.2,30.14,SSE,157,4.0,4.0,65,0.00,,CLR,0.00,0.00,VWS V14.01,2013-08-26 05:11:00,
2013-08-26 00:17:00,74.7,62.2,30.13,SSE,157,2.0,5.0,65,0.00,,CLR,0.00,0.00,VWS V14.01,2013-08-26 05:17:00,
2013-08-26 00:22:00,74.7,62.2,30.13,South,175,2.0,5.0,65,0.00,,CLR,0.00,0.00,VWS V14.01,2013-08-26 05:22:00,
2013-08-26 00:27:00,74.7,62.2,30.13,South,171,0.0,6.0,65,0.00,,CLR,0.00,0.00,VWS V14.01,2013-08-26 05:27:00,
2013-08-26 00:33:00,74.7,62.2,30.13,SSE,165,5.0,11.0,65,0.00,,CLR,0.00,0.00,VWS V14.01,2013-08-26 05:33:00,
2013-08-26 00:38:00,74.7,61.7,30.12,SSE,163,5.0,5.0,64,0.00,,CLR,0.00,0.00,VWS V14.01,2013-08-26 05:38:00,
2013-08-26 00:44:00,75.1,61.7,30.13,SSE,162,8.0,8.0,63,0.00,,CLR,0.00,0.00,VWS V14.01,2013-08-26 05:44:00,
2013-08-26 00:49:00,75.1,61.2,30.12,SSE,160,2.0,8.0,62,0.00,,CLR,0.00,0.00,VWS V14.01,2013-08-26 05:49:00,
2013-08-26 00:55:00,75.3,61.4,30.12,SSE,159,6.0,6.0,62,0.00,,CLR,0.00,0.00,VWS V14.01,2013-08-26 05:55:00,
2013-08-26 01:00:00,75.1,60.8,30.12,SSE,156,5.0,8.0,61,0.00,,CLR,0.00,0.00,VWS V14.01,2013-08-26 06:00:00,
2013-08-26 01:05:00,75.3,61.4,30.12,SSE,153,4.0,4.0,62,0.00,,CLR,0.00,0.00,VWS V14.01,2013-08-26 06:05:00,
2013-08-26 01:11:00,75.3,61.4,30.11,SSE,157,5.0,10.0,62,0.00,,CLR,0.00,0.00,VWS V14.01,2013-08-26 06:11:00,
2013-08-26 01:16:00,75.4,61.5,30.11,SSE,160,1.0,8.0,62,0.00,,CLR,0.00,0.00,VWS V14.01,2013-08-26 06:16:00,
2013-08-26 01:22:00,75.4,61.5,30.11,SSE,153,2.0,12.0,62,0.00,,CLR,0.00,0.00,VWS V14.01,2013-08-26 06:22:00,
2013-08-26 01:28:00,75.3,61.8,30.11,SSE,150,2.0,9.0,63,0.00,,CLR,0.00,0.00,VWS V14.01,2013-08-26 06:28:00,
2013-08-26 01:33:00,74.9,61.9,30.10,SSE,150,5.0,9.0,64,0.00,,CLR,0.00,0.00,VWS V14.01,2013-08-26 06:33:00,
2013-08-26 01:38:00,74.6,62.1,30.10,SSE,152,8.0,9.0,65,0.00,,CLR,0.00,0.00,VWS V14.01,2013-08-26 06:38:00,
2013-08-26 01:43:00,74.4,61.9,30.10,SSE,150,6.0,7.0,65,0.00,,CLR,0.00,0.00,VWS V14.01,2013-08-26 06:43:00,
2013-08-26 01:49:00,74.4,61.9,30.10,SSE,157,1.0,9.0,65,0.00,,CLR,0.00,0.00,VWS V14.01,2013-08-26 06:49:00,
2013-08-26 01:55:00,74.7,61.3,30.10,SSE,160,4.0,11.0,63,0.00,,CLR,0.00,0.00,VWS V14.01,2013-08-26 06:55:00,
2013-08-26 02:00:00,74.6,61.2,30.10,SSE,156,6.0,6.0,63,0.00,,CLR,0.00,0.00,VWS V14.01,2013-08-26 07:00:00,
2013-08-26 02:06:00,74.4,61.0,30.10,SSE,156,5.0,6.0,63,0.00,,CLR,0.00,0.00,VWS V14.01,2013-08-26 07:06:00,
2013-08-26 02:11:00,74.6,60.7,30.10,South,169,0.0,7.0,62,0.00,,CLR,0.00,0.00,VWS V14.01,2013-08-26 07:11:00,
2013-08-26 02:17:00,74.6,60.7,30.10,SSE,157,2.0,8.0,62,0.00,,CLR,0.00,0.00,VWS V14.01,2013-08-26 07:17:00,
2013-08-26 02:22:00,74.6,60.7,30.10,SSE,151,6.0,6.0,62,0.00,,CLR,0.00,0.00,VWS V14.01,2013-08-26 07:22:00,
2013-08-26 02:27:00,74.6,60.7,30.10,SE,144,8.0,9.0,62,0.00,,CLR,0.00,0.00,VWS V14.01,2013-08-26 07:27:00,
2013-08-26 02:32:00,74.6,60.7,30.09,SSE,151,9.0,11.0,62,0.00,,CLR,0.00,0.00,VWS V14.01,2013-08-26 07:32:00,
2013-08-26 02:38:00,74.4,60.5,30.10,SSE,159,2.0,8.0,62,0.00,,CLR,0.00,0.00,VWS V14.01,2013-08-26 07:38:00,
2013-08-26 02:43:00,74.2,60.8,30.10,SSE,151,2.0,6.0,63,0.00,,CLR,0.00,0.00,VWS V14.01,2013-08-26 07:43:00,
2013-08-26 02:49:00,73.9,61.4,30.10,SSE,157,1.0,5.0,65,0.00,,CLR,0.00,0.00,VWS V14.01,2013-08-26 07:49:00,
2013-08-26 02:55:00,73.7,61.2,30.09,SSE,153,8.0,10.0,65,0.00,,CLR,0.00,0.00,VWS V14.01,2013-08-26 07:55:00,
2013-08-26 03:00:00,73.5,61.5,30.10,SSE,156,5.0,10.0,66,0.00,,CLR,0.00,0.00,VWS V14.01,2013-08-26 08:00:00,
2013-08-26 03:05:00,73.2,61.6,30.10,SSE,149,1.0,8.0,67,0.00,,CLR,0.00,0.00,VWS V14.01,2013-08-26 08:05:00,
2013-08-26 03:10:00,73.0,61.8,30.10,SSE,165,4.0,7.0,68,0.00,,CLR,0.00,0.00,VWS V14.01,2013-08-26 08:10:00,
2013-08-26 03:15:00,72.8,62.0,30.10,SSE,157,1.0,6.0,69,0.00,,CLR,0.00,0.00,VWS V14.01,2013-08-26 08:15:00,
2013-08-26 03:20:00,72.7,62.0,30.10,SSE,157,1.0,4.0,69,0.00,,CLR,0.00,0.00,VWS V14.01,2013-08-26 08:20:00,
2013-08-26 03:25:00,72.7,62.4,30.10,SSE,157,6.0,7.0,70,0.00,,CLR,0.00,0.00,VWS V14.01,2013-08-26 08:25:00,
2013-08-26 03:30:00,72.5,62.6,30.10,SSE,159,1.0,7.0,71,0.00,,CLR,0.00,0.00,VWS V14.01,2013-08-26 08:30:00,
2013-08-26 03:35:00,72.3,62.8,30.10,SSE,159,4.0,7.0,72,0.00,,CLR,0.00,0.00,VWS V14.01,2013-08-26 08:35:00,
2013-08-26 03:41:00,72.3,63.2,30.10,SSE,157,4.0,6.0,73,0.00,,CLR,0.00,0.00,VWS V14.01,2013-08-26 08:41:00,
2013-08-26 03:46:00,72.1,63.4,30.10,SSE,157,0.0,2.0,74,0.00,,CLR,0.00,0.00,VWS V14.01,2013-08-26 08:46:00,
2013-08-26 03:51:00,72.3,63.9,30.10,SSE,150,0.0,5.0,75,0.00,,CLR,0.00,0.00,VWS V14.01,2013-08-26 08:51:00,
2013-08-26 03:56:00,72.3,63.9,30.10,SSE,150,1.0,5.0,75,0.00,,CLR,0.00,0.00,VWS V14.01,2013-08-26 08:56:00,
2013-08-26 04:01:00,72.1,64.1,30.10,SSE,150,1.0,1.0,76,0.00,,CLR,0.00,0.00,VWS V14.01,2013-08-26 09:01:00,
2013-08-26 04:07:00,72.0,64.4,30.10,SSE,150,0.0,0.0,77,0.00,,CLR,0.00,0.00,VWS V14.01,2013-08-26 09:07:00,
2013-08-26 04:13:00,71.8,64.2,30.10,SSE,150,0.0,1.0,77,0.00,,CLR,0.00,0.00,VWS V14.01,2013-08-26 09:13:00,
2013-08-26 04:19:00,71.5,64.3,30.10,SSE,150,0.0,1.0,78,0.00,,CLR,0.00,0.00,VWS V14.01,2013-08-26 09:19:00,
2013-08-26 04:24:00,71.3,64.5,30.10,SSE,150,0.0,1.0,79,0.00,,CLR,0.00,0.00,VWS V14.01,2013-08-26 09:24:00,
2013-08-26 04:29:00,71.1,64.6,30.10,SSE,150,4.0,4.0,80,0.00,,CLR,0.00,0.00,VWS V14.01,2013-08-26 09:29:00,
2013-08-26 04:34:00,70.9,64.4,30.10,SSE,150,0.0,2.0,80,0.00,,CLR,0.00,0.00,VWS V14.01,2013-08-26 09:34:00,
2013-08-26 04:40:00,70.6,64.5,30.10,SSE,150,0.0,2.0,81,0.00,,CLR,0.00,0.00,VWS V14.01,2013-08-26 09:40:00,
2013-08-26 04:45:00,70.4,64.3,30.10,SSE,151,0.0,4.0,81,0.00,,CLR,0.00,0.00,VWS V14.01,2013-08-26 09:45:00,
2013-08-26 04:51:00,70.3,64.6,30.10,SSE,151,0.0,1.0,82,0.00,,CLR,0.00,0.00,VWS V14.01,2013-08-26 09:51:00,
2013-08-26 04:56:00,70.1,64.7,30.09,SSE,152,0.0,2.0,83,0.00,,CLR,0.00,0.00,VWS V14.01,2013-08-26 09:56:00,
2013-08-26 05:01:00,70.1,64.7,30.09,SSE,151,0.0,4.0,83,0.00,,CLR,0.00,0.00,VWS V14.01,2013-08-26 10:01:00,
2013-08-26 05:07:00,69.9,64.8,30.09,SSE,148,0.0,1.0,84,0.00,,CLR,0.00,0.00,VWS V14.01,2013-08-26 10:07:00,
2013-08-26 05:12:00,69.9,64.8,30.10,SSE,157,4.0,5.0,84,0.00,,CLR,0.00,0.00,VWS V14.01,2013-08-26 10:12:00,
2013-08-26 05:17:00,69.8,65.1,30.10,SSE,157,1.0,1.0,85,0.00,,CLR,0.00,0.00,VWS V14.01,2013-08-26 10:17:00,
2013-08-26 05:23:00,69.6,64.9,30.10,SSE,157,0.0,0.0,85,0.00,,CLR,0.00,0.00,VWS V14.01,2013-08-26 10:23:00,
2013-08-26 05:28:00,69.6,65.2,30.10,SSE,157,0.0,1.0,86,0.00,,CLR,0.00,0.00,VWS V14.01,2013-08-26 10:28:00,
2013-08-26 05:34:00,69.4,65.0,30.10,SSE,157,0.0,0.0,86,0.00,,CLR,0.00,0.00,VWS V14.01,2013-08-26 10:34:00,
2013-08-26 05:40:00,69.4,65.4,30.10,SSE,157,0.0,0.0,87,0.00,,CLR,0.00,0.00,VWS V14.01,2013-08-26 10:40:00,
2013-08-26 05:45:00,69.3,65.3,30.10,SSE,157,0.0,2.0,87,0.00,,CLR,0.00,0.00,VWS V14.01,2013-08-26 10:45:00,
2013-08-26 05:51:00,69.3,65.6,30.11,SSE,157,0.0,0.0,88,0.00,,CLR,0.00,0.00,VWS V14.01,2013-08-26 10:51:00,
2013-08-26 05:57:00,69.1,65.4,30.11,SSE,157,0.0,0.0,88,0.00,,CLR,0.00,0.00,VWS V14.01,2013-08-26 10:57:00,
2013-08-26 06:02:00,69.1,65.4,30.11,SSE,157,0.0,0.0,88,0.00,,CLR,0.00,0.00,VWS V14.01,2013-08-26 11:02:00,
2013-08-26 06:07:00,69.1,65.4,30.11,SSE,157,0.0,0.0,88,0.00,,CLR,0.00,0.00,VWS V14.01,2013-08-26 11:07:00,
2013-08-26 06:13:00,68.9,65.5,30.11,SSE,157,0.0,1.0,89,0.00,,CLR,0.00,0.00,VWS V14.01,2013-08-26 11:13:00,
2013-08-26 06:19:00,68.8,65.4,30.11,SSE,157,2.0,2.0,89,0.00,,CLR,0.00,0.00,VWS V14.01,2013-08-26 11:19:00,
2013-08-26 06:25:00,68.8,65.4,30.11,SSE,157,0.0,0.0,89,0.00,,CLR,0.00,7.00,VWS V14.01,2013-08-26 11:25:00,
2013-08-26 06:30:00,68.8,65.8,30.11,SSE,157,0.0,1.0,90,0.00,,CLR,0.00,11.00,VWS V14.01,2013-08-26 11:30:00,
2013-08-26 06:35:00,68.6,65.6,30.11,SSE,157,0.0,1.0,90,0.00,,CLR,0.00,14.00,VWS V14.01,2013-08-26 11:35:00,
2013-08-26 06:41:00,68.6,65.6,30.11,SSE,157,2.0,4.0,90,0.00,,CLR,0.00,19.00,VWS V14.01,2013-08-26 11:41:00,
2013-08-26 06:47:00,68.8,66.1,30.11,SSE,157,0.0,2.0,91,0.00,,CLR,0.00,26.00,VWS V14.01,2013-08-26 11:47:00,
2013-08-26 06:52:00,68.9,66.2,30.11,SSE,157,2.0,5.0,91,0.00,,CLR,0.00,46.00,VWS V14.01,2013-08-26 11:52:00,
2013-08-26 06:58:00,69.3,66.6,30.12,SSE,157,5.0,6.0,91,0.00,,CLR,0.00,58.00,VWS V14.01,2013-08-26 11:58:00,
2013-08-26 07:03:00,69.4,66.7,30.12,SSE,157,0.0,2.0,91,0.00,,CLR,0.00,69.00,VWS V14.01,2013-08-26 12:03:00,
2013-08-26 07:09:00,69.8,67.1,30.11,SSE,157,1.0,4.0,91,0.00,,CLR,0.00,84.00,VWS V14.01,2013-08-26 12:09:00,
2013-08-26 07:14:00,69.9,66.8,30.12,SSE,157,0.0,2.0,90,0.00,,CLR,0.00,97.00,VWS V14.01,2013-08-26 12:14:00,
2013-08-26 07:19:00,70.3,67.2,30.12,SSE,157,0.0,1.0,90,0.00,,CLR,0.00,109.00,VWS V14.01,2013-08-26 12:19:00,
2013-08-26 07:25:00,70.4,67.3,30.12,SSE,157,0.0,1.0,90,0.00,,CLR,0.00,127.00,VWS V14.01,2013-08-26 12:25:00,
2013-08-26 07:31:00,70.8,67.4,30.12,SSE,157,5.0,5.0,89,0.00,,CLR,0.00,142.00,VWS V14.01,2013-08-26 12:31:00,
2013-08-26 07:36:00,71.1,67.7,30.12,SSE,157,1.0,4.0,89,0.00,,CLR,0.00,158.00,VWS V14.01,2013-08-26 12:36:00,
2013-08-26 07:41:00,71.5,67.8,30.13,South,174,2.0,4.0,88,0.00,,CLR,0.00,169.00,VWS V14.01,2013-08-26 12:41:00,
2013-08-26 07:46:00,71.6,67.9,30.13,South,173,5.0,6.0,88,0.00,,CLR,0.00,185.00,VWS V14.01,2013-08-26 12:46:00,
2013-08-26 07:52:00,72.0,68.3,30.13,South,178,0.0,2.0,88,0.00,,CLR,0.00,204.00,VWS V14.01,2013-08-26 12:52:00,
2013-08-26 07:57:00,72.3,68.2,30.13,SSW,198,2.0,3.0,87,0.00,,CLR,0.00,220.00,VWS V14.01,2013-08-26 12:57:00,
2013-08-26 08:03:00,72.7,68.6,30.14,SW,217,3.0,3.0,87,0.00,,CLR,0.00,241.00,VWS V14.01,2013-08-26 13:03:00,
2013-08-26 08:08:00,73.0,68.6,30.14,SW,217,0.0,4.0,86,0.00,,CLR,0.00,258.00,VWS V14.01,2013-08-26 13:08:00,
2013-08-26 08:13:00,73.3,68.9,30.14,SW,217,4.0,4.0,86,0.00,,CLR,0.00,276.00,VWS V14.01,2013-08-26 13:13:00,
2013-08-26 08:18:00,73.7,68.9,30.13,SSE,155,2.0,6.0,85,0.00,,CLR,0.00,294.00,VWS V14.01,2013-08-26 13:18:00,
2013-08-26 08:24:00,74.0,68.9,30.13,SW,217,5.0,6.0,84,0.00,,CLR,0.00,318.00,VWS V14.01,2013-08-26 13:24:00,
2013-08-26 08:29:00,74.4,69.3,30.12,SW,216,1.0,4.0,84,0.00,,CLR,0.00,332.00,VWS V14.01,2013-08-26 13:29:00,
2013-08-26 08:34:00,74.6,69.1,30.12,SSW,211,0.0,6.0,83,0.00,,CLR,0.00,352.00,VWS V14.01,2013-08-26 13:34:00,
2013-08-26 08:39:00,74.9,69.4,30.12,South,186,1.0,5.0,83,0.00,,CLR,0.00,364.00,VWS V14.01,2013-08-26 13:39:00,
2013-08-26 08:45:00,75.3,69.1,30.12,SSW,209,5.0,7.0,81,0.00,,CLR,0.00,394.00,VWS V14.01,2013-08-26 13:45:00,
2013-08-26 08:51:00,75.3,69.4,30.12,SW,215,7.0,7.0,82,0.00,,CLR,0.00,420.00,VWS V14.01,2013-08-26 13:51:00,
2013-08-26 08:56:00,75.4,69.5,30.12,SW,214,0.0,6.0,82,0.00,,CLR,0.00,431.00,VWS V14.01,2013-08-26 13:56:00,
2013-08-26 09:01:00,76.0,69.8,30.12,SSW,211,5.0,5.0,81,0.00,,CLR,0.00,452.00,VWS V14.01,2013-08-26 14:01:00,
2013-08-26 09:06:00,76.3,70.1,30.12,SSW,208,2.0,6.0,81,0.00,,CLR,0.00,480.00,VWS V14.01,2013-08-26 14:06:00,
2013-08-26 09:12:00,76.7,70.1,30.12,SW,219,5.0,9.0,80,0.00,,CLR,0.00,504.00,VWS V14.01,2013-08-26 14:12:00,
2013-08-26 09:17:00,77.0,70.0,30.12,SSW,210,5.0,7.0,79,0.00,,CLR,0.00,492.00,VWS V14.01,2013-08-26 14:17:00,
2013-08-26 09:22:00,77.6,70.6,30.12,SW,217,1.0,4.0,79,0.00,,CLR,0.00,536.00,VWS V14.01,2013-08-26 14:22:00,
2013-08-26 09:28:00,78.3,70.5,30.11,SSW,198,0.0,3.0,77,0.00,,CLR,0.00,524.00,VWS V14.01,2013-08-26 14:28:00,
2013-08-26 09:33:00,78.5,70.7,30.11,SSW,205,2.0,3.0,77,0.00,,CLR,0.00,522.00,VWS V14.01,2013-08-26 14:33:00,
2013-08-26 09:38:00,79.0,70.4,30.11,SW,214,3.0,4.0,75,0.00,,CLR,0.00,545.00,VWS V14.01,2013-08-26 14:38:00,
2013-08-26 09:43:00,79.2,71.0,30.11,South,184,2.0,2.0,76,0.00,,CLR,0.00,568.00,VWS V14.01,2013-08-26 14:43:00,
2013-08-26 09:49:00,79.8,70.8,30.12,SW,216,3.0,7.0,74,0.00,,CLR,0.00,587.00,VWS V14.01,2013-08-26 14:49:00,
2013-08-26 09:54:00,79.9,70.9,30.11,South,191,2.0,3.0,74,0.00,,CLR,0.00,584.00,VWS V14.01,2013-08-26 14:54:00,
2013-08-26 09:59:00,80.1,70.7,30.11,SW,223,4.0,7.0,73,0.00,,CLR,0.00,555.00,VWS V14.01,2013-08-26 14:59:00,
2013-08-26 10:05:00,80.5,71.5,30.11,South,190,1.0,5.0,74,0.00,,CLR,0.00,584.00,VWS V14.01,2013-08-26 15:05:00,
2013-08-26 10:10:00,80.7,71.7,30.11,SW,216,1.0,6.0,74,0.00,,CLR,0.00,671.00,VWS V14.01,2013-08-26 15:10:00,
2013-08-26 10:15:00,80.9,71.0,30.11,SW,219,3.0,7.0,72,0.00,,CLR,0.00,603.00,VWS V14.01,2013-08-26 15:15:00,
2013-08-26 10:20:00,81.1,71.2,30.11,SW,215,6.0,6.0,72,0.00,,CLR,0.00,598.00,VWS V14.01,2013-08-26 15:20:00,
2013-08-26 10:25:00,81.4,71.5,30.11,SW,222,6.0,7.0,72,0.00,,CLR,0.00,589.00,VWS V14.01,2013-08-26 15:25:00,
2013-08-26 10:30:00,82.0,71.3,30.11,WSW,237,3.0,7.0,70,0.00,,CLR,0.00,568.00,VWS V14.01,2013-08-26 15:30:00,
2013-08-26 10:35:00,82.2,71.0,30.10,SW,219,5.0,6.0,69,0.00,,CLR,0.00,594.00,VWS V14.01,2013-08-26 15:35:00,
2013-08-26 10:40:00,82.2,71.4,30.10,SSW,208,1.0,6.0,70,0.00,,CLR,0.00,555.00,VWS V14.01,2013-08-26 15:40:00,
2013-08-26 10:45:00,82.4,71.2,30.10,SSW,197,2.0,3.0,69,0.00,,CLR,0.00,490.00,VWS V14.01,2013-08-26 15:45:00,
2013-08-26 10:50:00,82.4,70.3,30.11,SW,232,1.0,6.0,67,0.00,,CLR,0.00,522.00,VWS V14.01,2013-08-26 15:50:00,
2013-08-26 10:55:00,82.6,71.0,30.11,SSW,195,5.0,7.0,68,0.00,,CLR,0.00,575.00,VWS V14.01,2013-08-26 15:55:00,
2013-08-26 11:00:00,82.6,71.0,30.11,South,184,4.0,7.0,68,0.00,,CLR,0.00,570.00,VWS V14.01,2013-08-26 16:00:00,
2013-08-26 11:05:00,83.0,70.9,30.10,SSW,202,1.0,5.0,67,0.00,,CLR,0.00,599.00,VWS V14.01,2013-08-26 16:05:00,
2013-08-26 11:10:00,83.0,70.9,30.11,SSW,212,4.0,7.0,67,0.00,,CLR,0.00,584.00,VWS V14.01,2013-08-26 16:10:00,
2013-08-26 11:15:00,83.4,71.7,30.11,SW,217,1.0,8.0,68,0.00,,CLR,0.00,531.00,VWS V14.01,2013-08-26 16:15:00,
2013-08-26 11:20:00,83.4,70.4,30.10,SW,217,2.0,4.0,65,0.00,,CLR,0.00,520.00,VWS V14.01,2013-08-26 16:20:00,
2013-08-26 11:25:00,83.8,69.4,30.10,SSW,211,0.0,2.0,62,0.00,,CLR,0.00,513.00,VWS V14.01,2013-08-26 16:25:00,
2013-08-26 11:30:00,84.0,68.6,30.10,SSW,213,2.0,5.0,60,0.00,,CLR,0.00,599.00,VWS V14.01,2013-08-26 16:30:00,
2013-08-26 11:35:00,84.3,68.9,30.10,SSW,203,4.0,4.0,60,0.00,,CLR,0.00,584.00,VWS V14.01,2013-08-26 16:35:00,
2013-08-26 11:40:00,84.7,70.2,30.10,West,262,0.0,4.0,62,0.00,,CLR,0.00,612.00,VWS V14.01,2013-08-26 16:40:00,
2013-08-26 11:45:00,84.7,69.3,30.10,SSW,196,1.0,5.0,60,0.00,,CLR,0.00,693.00,VWS V14.01,2013-08-26 16:45:00,
2013-08-26 11:50:00,85.1,70.2,30.09,SW,227,4.0,5.0,61,0.00,,CLR,0.00,712.00,VWS V14.01,2013-08-26 16:50:00,
2013-08-26 11:55:00,84.9,70.0,30.09,WSW,242,7.0,7.0,61,0.00,,CLR,0.00,679.00,VWS V14.01,2013-08-26 16:55:00,
2013-08-26 12:00:00,84.9,70.0,30.09,SW,222,3.0,4.0,61,0.00,,CLR,0.00,724.00,VWS V14.01,2013-08-26 17:00:00,
2013-08-26 12:05:00,85.5,69.1,30.09,West,268,3.0,8.0,58,0.00,,CLR,0.00,733.00,VWS V14.01,2013-08-26 17:05:00,
2013-08-26 12:10:00,85.7,70.2,30.09,WSW,254,2.0,2.0,60,0.00,,CLR,0.00,726.00,VWS V14.01,2013-08-26 17:10:00,
2013-08-26 12:16:00,86.1,69.6,30.08,SSW,213,5.0,5.0,58,0.00,,CLR,0.00,657.00,VWS V14.01,2013-08-26 17:16:00,
2013-08-26 12:21:00,85.9,69.9,30.08,SW,215,1.0,7.0,59,0.00,,CLR,0.00,673.00,VWS V14.01,2013-08-26 17:21:00,
2013-08-26 12:26:00,85.7,68.7,30.08,SSW,194,2.0,5.0,57,0.00,,CLR,0.00,724.00,VWS V14.01,2013-08-26 17:26:00,
2013-08-26 12:31:00,85.9,70.4,30.08,SSW,198,4.0,7.0,60,0.00,,CLR,0.00,780.00,VWS V14.01,2013-08-26 17:31:00,
2013-08-26 12:36:00,86.3,70.3,30.08,South,186,1.0,4.0,59,0.00,,CLR,0.00,830.00,VWS V14.01,2013-08-26 17:36:00,
2013-08-26 12:41:00,86.3,69.8,30.07,SSW,210,3.0,5.0,58,0.00,,CLR,0.00,833.00,VWS V14.01,2013-08-26 17:41:00,
2013-08-26 12:46:00,86.5,70.0,30.07,SW,217,2.0,8.0,58,0.00,,CLR,0.00,793.00,VWS V14.01,2013-08-26 17:46:00,
2013-08-26 12:51:00,86.7,71.2,30.07,SSW,211,3.0,3.0,60,0.00,,CLR,0.00,831.00,VWS V14.01,2013-08-26 17:51:00,
2013-08-26 12:56:00,86.7,68.6,30.07,WNW,285,2.0,4.0,55,0.00,,CLR,0.00,838.00,VWS V14.01,2013-08-26 17:56:00,
2013-08-26 13:01:00,86.5,70.5,30.07,South,182,0.0,3.0,59,0.00,,FEW037,0.00,573.00,VWS V14.01,2013-08-26 18:01:00,
2013-08-26 13:06:00,87.0,70.9,30.06,South,176,4.0,6.0,59,0.00,,FEW037,0.00,628.00,VWS V14.01,2013-08-26 18:06:00,
2013-08-26 13:11:00,86.7,70.2,30.06,WSW,247,4.0,4.0,58,0.00,,FEW037,0.00,698.00,VWS V14.01,2013-08-26 18:11:00,
2013-08-26 13:16:00,87.4,69.8,30.06,WSW,250,0.0,1.0,56,0.00,,FEW037,0.00,904.00,VWS V14.01,2013-08-26 18:16:00,
2013-08-26 13:21:00,87.8,69.6,30.06,SSW,198,3.0,5.0,55,0.00,,FEW037,0.00,705.00,VWS V14.01,2013-08-26 18:21:00,
2013-08-26 13:26:00,87.6,69.4,30.06,SSW,209,3.0,3.0,55,0.00,,FEW037,0.00,612.00,VWS V14.01,2013-08-26 18:26:00,
2013-08-26 13:31:00,87.0,69.9,30.06,South,184,3.0,3.0,57,0.00,,FEW037,0.00,540.00,VWS V14.01,2013-08-26 18:31:00,
2013-08-26 13:36:00,87.0,69.9,30.06,South,180,4.0,4.0,57,0.00,,FEW037,0.00,443.00,VWS V14.01,2013-08-26 18:36:00,
2013-08-26 13:41:00,87.0,69.9,30.05,South,169,0.0,4.0,57,0.00,,FEW037,0.00,573.00,VWS V14.01,2013-08-26 18:41:00,
2013-08-26 13:46:00,87.0,68.9,30.05,SW,220,2.0,6.0,55,0.00,,FEW037,0.00,615.00,VWS V14.01,2013-08-26 18:46:00,
2013-08-26 13:51:00,87.2,70.1,30.05,SSW,203,4.0,4.0,57,0.00,,FEW037,0.00,698.00,VWS V14.01,2013-08-26 18:51:00,
2013-08-26 13:56:00,87.2,69.1,30.05,West,269,3.0,4.0,55,0.00,,FEW037,0.00,582.00,VWS V14.01,2013-08-26 18:56:00,
2013-08-26 14:01:00,87.0,69.4,30.04,SSW,203,3.0,3.0,56,0.00,,FEW041,0.00,341.00,VWS V14.01,2013-08-26 19:01:00,
2013-08-26 14:06:00,87.2,70.1,30.04,West,273,6.0,6.0,57,0.00,,FEW041,0.00,360.00,VWS V14.01,2013-08-26 19:06:00,
2013-08-26 14:11:00,87.2,70.6,30.04,SSW,209,0.0,4.0,58,0.00,,FEW041,0.00,663.00,VWS V14.01,2013-08-26 19:11:00,
2013-08-26 14:16:00,87.4,70.3,30.03,SW,215,5.0,7.0,57,0.00,,FEW041,0.00,592.00,VWS V14.01,2013-08-26 19:16:00,
2013-08-26 14:21:00,87.2,70.6,30.03,SSE,162,6.0,7.0,58,0.00,,FEW041,0.00,605.00,VWS V14.01,2013-08-26 19:21:00,
2013-08-26 14:26:00,87.0,70.4,30.03,SSE,153,4.0,5.0,58,0.00,,FEW041,0.00,575.00,VWS V14.01,2013-08-26 19:26:00,
2013-08-26 14:31:00,87.0,70.4,30.03,SW,217,0.0,2.0,58,0.00,,FEW041,0.00,675.00,VWS V14.01,2013-08-26 19:31:00,
2013-08-26 14:36:00,87.0,69.9,30.03,SW,224,2.0,5.0,57,0.00,,FEW041,0.00,659.00,VWS V14.01,2013-08-26 19:36:00,
2013-08-26 14:41:00,87.0,69.9,30.03,SSE,161,1.0,5.0,57,0.00,,FEW041,0.00,735.00,VWS V14.01,2013-08-26 19:41:00,
2013-08-26 14:46:00,87.4,70.3,30.02,SSE,161,6.0,6.0,57,0.00,,FEW041,0.00,796.00,VWS V14.01,2013-08-26 19:46:00,
2013-08-26 14:51:00,87.8,70.7,30.02,SSE,166,2.0,8.0,57,0.00,,FEW041,0.00,744.00,VWS V14.01,2013-08-26 19:51:00,
2013-08-26 14:56:00,87.8,69.6,30.02,SSE,157,7.0,9.0,55,0.00,,FEW041,0.00,647.00,VWS V14.01,2013-08-26 19:56:00,
2013-08-26 15:01:00,87.6,71.0,30.02,SSE,150,0.0,6.0,58,0.00,,SCT045,0.00,561.00,VWS V14.01,2013-08-26 20:01:00,
2013-08-26 15:06:00,87.4,69.3,30.02,SSE,162,2.0,10.0,55,0.00,,SCT045,0.00,480.00,VWS V14.01,2013-08-26 20:06:00,
2013-08-26 15:11:00,87.2,69.1,30.01,SSE,157,4.0,8.0,55,0.00,,SCT045,0.00,559.00,VWS V14.01,2013-08-26 20:11:00,
2013-08-26 15:16:00,87.4,69.8,30.01,SW,219,3.0,11.0,56,0.00,,SCT045,0.00,638.00,VWS V14.01,2013-08-26 20:16:00,
2013-08-26 15:21:00,87.4,69.3,30.01,SSE,158,7.0,10.0,55,0.00,,SCT045,0.00,621.00,VWS V14.01,2013-08-26 20:21:00,
2013-08-26 15:26:00,87.4,69.3,30.01,SSE,150,0.0,4.0,55,0.00,,SCT045,0.00,621.00,VWS V14.01,2013-08-26 20:26:00,
2013-08-26 15:31:00,87.4,67.6,30.01,SSW,202,2.0,6.0,52,0.00,,SCT045,0.00,633.00,VWS V14.01,2013-08-26 20:31:00,
2013-08-26 15:36:00,87.6,68.4,30.00,SW,235,5.0,5.0,53,0.00,,SCT045,0.00,605.00,VWS V14.01,2013-08-26 20:36:00,
2013-08-26 15:41:00,88.0,68.7,30.00,SSW,196,1.0,4.0,53,0.00,,SCT045,0.00,547.00,VWS V14.01,2013-08-26 20:41:00,
2013-08-26 15:46:00,88.0,68.2,30.00,SSE,155,1.0,5.0,52,0.00,,SCT045,0.00,543.00,VWS V14.01,2013-08-26 20:46:00,
2013-08-26 15:51:00,88.0,67.6,30.00,SSW,192,2.0,7.0,51,0.00,,SCT045,0.00,448.00,VWS V14.01,2013-08-26 20:51:00,
2013-08-26 15:56:00,87.6,67.8,30.00,SSW,209,2.0,6.0,52,0.00,,SCT045,0.00,480.00,VWS V14.01,2013-08-26 20:56:00,
2013-08-26 16:01:00,87.6,67.2,30.00,SSW,196,8.0,10.0,51,0.00,,FEW039,0.00,466.00,VWS V14.01,2013-08-26 21:01:00,
2013-08-26 16:06:00,87.6,68.4,30.00,SSW,196,6.0,6.0,53,0.00,,FEW039,0.00,425.00,VWS V14.01,2013-08-26 21:06:00,
2013-08-26 16:12:00,87.8,67.4,30.00,SSW,212,7.0,8.0,51,0.00,,FEW039,0.00,443.00,VWS V14.01,2013-08-26 21:12:00,
2013-08-26 16:17:00,88.0,67.6,30.00,SW,219,1.0,7.0,51,0.00,,FEW039,0.00,540.00,VWS V14.01,2013-08-26 21:17:00,
2013-08-26 16:22:00,88.2,68.9,30.00,SW,225,2.0,5.0,53,0.00,,FEW039,0.00,520.00,VWS V14.01,2013-08-26 21:22:00,
2013-08-26 16:27:00,88.2,68.4,30.00,SSW,194,2.0,8.0,52,0.00,,FEW039,0.00,480.00,VWS V14.01,2013-08-26 21:27:00,
2013-08-26 16:32:00,88.0,68.2,30.00,South,180,4.0,6.0,52,0.00,,FEW039,0.00,469.00,VWS V14.01,2013-08-26 21:32:00,
2013-08-26 16:37:00,88.0,68.7,30.00,SW,218,3.0,6.0,53,0.00,,FEW039,0.00,485.00,VWS V14.01,2013-08-26 21:37:00,
2013-08-26 16:42:00,88.0,67.6,30.00,SW,236,8.0,10.0,51,0.00,,FEW039,0.00,524.00,VWS V14.01,2013-08-26 21:42:00,
2013-08-26 16:47:00,88.2,68.4,29.99,SSE,161,2.0,8.0,52,0.00,,FEW039,0.00,503.00,VWS V14.01,2013-08-26 21:47:00,
2013-08-26 16:52:00,88.4,67.4,29.99,SSW,210,2.0,7.0,50,0.00,,FEW039,0.00,401.00,VWS V14.01,2013-08-26 21:52:00,
2013-08-26 16:57:00,88.4,68.0,29.99,South,173,0.0,2.0,51,0.00,,FEW039,0.00,475.00,VWS V14.01,2013-08-26 21:57:00,
2013-08-26 17:02:00,88.2,68.9,29.99,SW,226,3.0,4.0,53,0.00,,CLR,0.00,471.00,VWS V14.01,2013-08-26 22:02:00,
2013-08-26 17:07:00,88.4,68.6,29.99,SSE,150,6.0,6.0,52,0.00,,CLR,0.00,471.00,VWS V14.01,2013-08-26 22:07:00,
2013-08-26 17:12:00,88.2,68.9,29.99,SSW,211,2.0,4.0,53,0.00,,CLR,0.00,461.00,VWS V14.01,2013-08-26 22:12:00,
2013-08-26 17:17:00,88.4,69.1,29.99,SSW,205,3.0,3.0,53,0.00,,CLR,0.00,441.00,VWS V14.01,2013-08-26 22:17:00,
2013-08-26 17:22:00,88.6,69.3,29.99,SW,231,2.0,7.0,53,0.00,,CLR,0.00,422.00,VWS V14.01,2013-08-26 22:22:00,
2013-08-26 17:27:00,88.4,69.1,29.99,SSE,167,4.0,5.0,53,0.00,,CLR,0.00,399.00,VWS V14.01,2013-08-26 22:27:00,
2013-08-26 17:32:00,88.2,69.5,29.99,South,186,2.0,5.0,54,0.00,,CLR,0.00,339.00,VWS V14.01,2013-08-26 22:32:00,
2013-08-26 17:37:00,88.0,69.3,29.98,SW,229,2.0,3.0,54,0.00,,CLR,0.00,364.00,VWS V14.01,2013-08-26 22:37:00,
2013-08-26 17:42:00,88.0,69.3,29.98,SW,224,3.0,8.0,54,0.00,,CLR,0.00,346.00,VWS V14.01,2013-08-26 22:42:00,
2013-08-26 17:47:00,88.0,68.2,29.98,SSE,166,4.0,5.0,52,0.00,,CLR,0.00,304.00,VWS V14.01,2013-08-26 22:47:00,
2013-08-26 17:52:00,87.6,68.9,29.98,SSE,162,6.0,9.0,54,0.00,,CLR,0.00,306.00,VWS V14.01,2013-08-26 22:52:00,
2013-08-26 17:58:00,87.6,68.9,29.98,SSW,210,2.0,7.0,54,0.00,,CLR,0.00,260.00,VWS V14.01,2013-08-26 22:58:00,
2013-08-26 18:03:00,87.4,68.7,29.98,SSW,205,1.0,7.0,54,0.00,,CLR,0.00,248.00,VWS V14.01,2013-08-26 23:03:00,
2013-08-26 18:08:00,87.4,68.7,29.98,SSW,213,1.0,8.0,54,0.00,,CLR,0.00,199.00,VWS V14.01,2013-08-26 23:08:00,
2013-08-26 18:14:00,87.0,69.4,29.97,SW,227,0.0,7.0,56,0.00,,CLR,0.00,148.00,VWS V14.01,2013-08-26 23:14:00,
2013-08-26 18:19:00,87.0,69.4,29.97,SW,227,0.0,5.0,56,0.00,,CLR,0.00,79.00,VWS V14.01,2013-08-26 23:19:00,
2013-08-26 18:25:00,86.5,69.5,29.97,SSW,209,4.0,4.0,57,0.00,,CLR,0.00,77.00,VWS V14.01,2013-08-26 23:25:00,
2013-08-26 18:30:00,86.3,69.3,29.97,SSW,209,0.0,1.0,57,0.00,,CLR,0.00,74.00,VWS V14.01,2013-08-26 23:30:00,
2013-08-26 18:35:00,86.3,69.3,29.97,SSW,211,0.0,8.0,57,0.00,,CLR,0.00,69.00,VWS V14.01,2013-08-26 23:35:00,
2013-08-26 18:40:00,86.1,69.1,29.97,SSW,210,3.0,3.0,57,0.00,,CLR,0.00,54.00,VWS V14.01,2013-08-26 23:40:00,
2013-08-26 18:45:00,85.9,69.4,29.97,SSW,211,0.0,0.0,58,0.00,,CLR,0.00,47.00,VWS V14.01,2013-08-26 23:45:00,
2013-08-26 18:50:00,85.9,69.4,29.97,SSW,211,0.0,0.0,58,0.00,,CLR,0.00,42.00,VWS V14.01,2013-08-26 23:50:00,
2013-08-26 18:55:00,85.7,69.2,29.97,SSW,211,0.0,1.0,58,0.00,,CLR,0.00,40.00,VWS V14.01,2013-08-26 23:55:00,
2013-08-26 19:00:00,85.5,69.6,29.97,SSW,211,0.0,1.0,59,0.00,,CLR,0.00,40.00,VWS V14.01,2013-08-27 00:00:00,
2013-08-26 19:05:00,85.3,69.4,29.96,SW,216,0.0,3.0,59,0.00,,CLR,0.00,39.00,VWS V14.01,2013-08-27 00:05:00,
2013-08-26 19:10:00,85.1,69.7,29.97,SSW,202,0.0,5.0,60,0.00,,CLR,0.00,35.00,VWS V14.01,2013-08-27 00:10:00,
2013-08-26 19:15:00,84.7,69.8,29.96,South,172,0.0,1.0,61,0.00,,CLR,0.00,32.00,VWS V14.01,2013-08-27 00:15:00,
2013-08-26 19:21:00,84.5,70.1,29.96,South,171,0.0,1.0,62,0.00,,CLR,0.00,25.00,VWS V14.01,2013-08-27 00:21:00,
2013-08-26 19:26:00,84.3,69.9,29.96,South,171,2.0,4.0,62,0.00,,CLR,0.00,16.00,VWS V14.01,2013-08-27 00:26:00,
2013-08-26 19:31:00,84.1,69.7,29.96,South,177,0.0,1.0,62,0.00,,CLR,0.00,11.00,VWS V14.01,2013-08-27 00:31:00,
2013-08-26 19:36:00,84.0,70.1,29.96,South,177,0.0,4.0,63,0.00,,CLR,0.00,11.00,VWS V14.01,2013-08-27 00:36:00,
2013-08-26 19:41:00,84.0,70.5,29.96,South,177,0.0,1.0,64,0.00,,CLR,0.00,9.00,VWS V14.01,2013-08-27 00:41:00,
2013-08-26 19:46:00,83.8,70.3,29.96,South,177,0.0,1.0,64,0.00,,CLR,0.00,7.00,VWS V14.01,2013-08-27 00:46:00,
2013-08-26 19:51:00,83.4,70.4,29.96,South,173,0.0,2.0,65,0.00,,CLR,0.00,0.00,VWS V14.01,2013-08-27 00:51:00,
2013-08-26 19:56:00,83.2,70.7,29.96,South,171,0.0,1.0,66,0.00,,CLR,0.00,0.00,VWS V14.01,2013-08-27 00:56:00,
2013-08-26 20:01:00,83.0,70.9,29.96,South,171,4.0,4.0,67,0.00,,CLR,0.00,0.00,VWS V14.01,2013-08-27 01:01:00,
2013-08-26 20:06:00,82.6,71.0,29.96,South,169,0.0,0.0,68,0.00,,CLR,0.00,0.00,VWS V14.01,2013-08-27 01:06:00,
2013-08-26 20:11:00,82.4,71.2,29.96,South,169,0.0,2.0,69,0.00,,CLR,0.00,0.00,VWS V14.01,2013-08-27 01:11:00,
2013-08-26 20:16:00,82.2,71.0,29.95,South,169,1.0,5.0,69,0.00,,CLR,0.00,0.00,VWS V14.01,2013-08-27 01:16:00,
2013-08-26 20:21:00,82.0,70.8,29.95,South,169,0.0,1.0,69,0.00,,CLR,0.00,0.00,VWS V14.01,2013-08-27 01:21:00,
2013-08-26 20:27:00,81.8,70.6,29.95,South,169,0.0,0.0,69,0.00,,CLR,0.00,0.00,VWS V14.01,2013-08-27 01:27:00,
2013-08-26 20:32:00,81.6,70.4,29.96,SSE,168,0.0,0.0,69,0.00,,CLR,0.00,0.00,VWS V14.01,2013-08-27 01:32:00,
2013-08-26 20:38:00,81.4,70.7,29.95,SSE,168,2.0,2.0,70,0.00,,CLR,0.00,0.00,VWS V14.01,2013-08-27 01:38:00,
2013-08-26 20:43:00,81.4,70.7,29.96,SSE,168,0.0,4.0,70,0.00,,CLR,0.00,0.00,VWS V14.01,2013-08-27 01:43:00,
2013-08-26 20:48:00,81.2,70.5,29.96,SSE,167,0.0,2.0,70,0.00,,CLR,0.00,0.00,VWS V14.01,2013-08-27 01:48:00,
2013-08-26 20:54:00,81.1,70.8,29.96,SSE,167,2.0,4.0,71,0.00,,CLR,0.00,0.00,VWS V14.01,2013-08-27 01:54:00,
2013-08-26 20:59:00,81.1,70.8,29.96,SSE,163,0.0,0.0,71,0.00,,CLR,0.00,0.00,VWS V14.01,2013-08-27 01:59:00,
2013-08-26 21:04:00,80.9,71.0,29.96,SSE,148,0.0,5.0,72,0.00,,CLR,0.00,0.00,VWS V14.01,2013-08-27 02:04:00,
2013-08-26 21:10:00,80.7,70.8,29.96,SSE,149,0.0,5.0,72,0.00,,CLR,0.00,0.00,VWS V14.01,2013-08-27 02:10:00,
2013-08-26 21:15:00,80.7,70.8,29.96,SSE,149,0.0,0.0,72,0.00,,CLR,0.00,0.00,VWS V14.01,2013-08-27 02:15:00,
2013-08-26 21:20:00,80.5,70.7,29.96,SSE,149,4.0,4.0,72,0.00,,CLR,0.00,0.00,VWS V14.01,2013-08-27 02:20:00,
2013-08-26 21:25:00,80.5,70.2,29.96,SSE,149,5.0,7.0,71,0.00,,CLR,0.00,0.00,VWS V14.01,2013-08-27 02:25:00,
2013-08-26 21:31:00,80.5,70.2,29.97,SSE,150,1.0,5.0,71,0.00,,CLR,0.00,0.00,VWS V14.01,2013-08-27 02:31:00,
2013-08-26 21:37:00,80.5,70.7,29.97,SSE,149,0.0,0.0,72,0.00,,CLR,0.00,0.00,VWS V14.01,2013-08-27 02:37:00,
2013-08-26 21:42:00,80.3,70.5,29.97,SSE,149,2.0,5.0,72,0.00,,CLR,0.00,0.00,VWS V14.01,2013-08-27 02:42:00,
2013-08-26 21:47:00,80.3,70.5,29.97,SSE,149,0.0,4.0,72,0.00,,CLR,0.00,0.00,VWS V14.01,2013-08-27 02:47:00,
2013-08-26 21:53:00,80.3,70.1,29.97,SSE,149,0.0,5.0,71,0.00,,CLR,0.00,0.00,VWS V14.01,2013-08-27 02:53:00,
2013-08-26 21:59:00,80.1,70.3,29.97,SSE,149,5.0,5.0,72,0.00,,CLR,0.00,0.00,VWS V14.01,2013-08-27 02:59:00,
2013-08-26 22:04:00,80.1,70.3,29.97,SSE,150,2.0,7.0,72,0.00,,CLR,0.00,0.00,VWS V14.01,2013-08-27 03:04:00,
2013-08-26 22:10:00,79.9,70.5,29.97,SSE,154,6.0,7.0,73,0.00,,CLR,0.00,0.00,VWS V14.01,2013-08-27 03:10:00,
2013-08-26 22:15:00,79.9,70.5,29.97,SSE,154,1.0,5.0,73,0.00,,CLR,0.00,0.00,VWS V14.01,2013-08-27 03:15:00,
2013-08-26 22:20:00,79.8,70.4,29.97,SSE,154,4.0,5.0,73,0.00,,CLR,0.00,0.00,VWS V14.01,2013-08-27 03:20:00,
2013-08-26 22:25:00,79.8,70.4,29.97,SSE,154,5.0,5.0,73,0.00,,CLR,0.00,0.00,VWS V14.01,2013-08-27 03:25:00,
2013-08-26 22:30:00,79.8,70.4,29.97,SSE,153,2.0,4.0,73,0.00,,CLR,0.00,0.00,VWS V14.01,2013-08-27 03:30:00,
2013-08-26 22:35:00,79.8,70.4,29.97,SSE,153,1.0,2.0,73,0.00,,CLR,0.00,0.00,VWS V14.01,2013-08-27 03:35:00,
2013-08-26 22:40:00,79.6,70.2,29.97,SSE,153,0.0,1.0,73,0.00,,CLR,0.00,0.00,VWS V14.01,2013-08-27 03:40:00,
2013-08-26 22:45:00,79.4,70.0,29.97,SSE,153,2.0,5.0,73,0.00,,CLR,0.00,0.00,VWS V14.01,2013-08-27 03:45:00,
2013-08-26 22:51:00,79.6,70.2,29.97,SSE,152,5.0,7.0,73,0.00,,CLR,0.00,0.00,VWS V14.01,2013-08-27 03:51:00,
2013-08-26 22:56:00,79.6,70.2,29.97,SSE,155,0.0,4.0,73,0.00,,CLR,0.00,0.00,VWS V14.01,2013-08-27 03:56:00,
2013-08-26 23:01:00,79.6,70.2,29.97,SSE,155,2.0,6.0,73,0.00,,CLR,0.00,0.00,VWS V14.01,2013-08-27 04:01:00,
2013-08-26 23:02:00,79.6,70.2,29.97,SSE,155,0.0,2.0,73,0.00,,CLR,0.00,0.00,VWS V14.01,2013-08-27 04:02:00,
2013-08-26 23:03:00,79.4,70.0,29.97,SSE,155,7.0,7.0,73,0.00,,CLR,0.00,0.00,VWS V14.01,2013-08-27 04:03:00,
2013-08-26 23:05:00,79.4,70.0,29.97,SSE,155,0.0,4.0,73,0.00,,CLR,0.00,0.00,VWS V14.01,2013-08-27 04:05:00,
2013-08-26 23:10:00,79.4,70.0,29.97,SSE,154,2.0,7.0,73,0.00,,CLR,0.00,0.00,VWS V14.01,2013-08-27 04:10:00,
2013-08-26 23:11:00,79.4,70.0,29.97,SSE,154,4.0,4.0,73,0.00,,CLR,0.00,0.00,VWS V14.01,2013-08-27 04:11:00,
2013-08-26 23:17:00,79.2,69.8,29.97,SSE,154,4.0,5.0,73,0.00,,CLR,0.00,0.00,VWS V14.01,2013-08-27 04:17:00,
2013-08-26 23:22:00,79.0,69.6,29.97,SSE,154,4.0,7.0,73,0.00,,CLR,0.00,0.00,VWS V14.01,2013-08-27 04:22:00,
2013-08-26 23:27:00,78.8,69.4,29.97,SSE,153,5.0,7.0,73,0.00,,CLR,0.00,0.00,VWS V14.01,2013-08-27 04:27:00,
2013-08-26 23:32:00,78.8,69.8,29.96,SSE,153,4.0,11.0,74,0.00,,CLR,0.00,0.00,VWS V14.01,2013-08-27 04:32:00,
2013-08-26 23:38:00,78.6,69.2,29.96,SSE,158,4.0,10.0,73,0.00,,CLR,0.00,0.00,VWS V14.01,2013-08-27 04:38:00,
2013-08-26 23:43:00,78.6,69.6,29.96,SSE,163,1.0,9.0,74,0.00,,CLR,0.00,0.00,VWS V14.01,2013-08-27 04:43:00,
2013-08-26 23:49:00,78.6,69.6,29.96,SSE,154,4.0,7.0,74,0.00,,CLR,0.00,0.00,VWS V14.01,2013-08-27 04:49:00,
2013-08-26 23:55:00,78.6,69.2,29.96,SSE,156,2.0,5.0,73,0.00,,CLR,0.00,0.00,VWS V14.01,2013-08-27 04:55:00,